This demonstration page uses our WeatherBlox Daily Observations layout. Learn more.

38.88101, -77.10428

Hourly Observations for August 30, 2018

Temp ( °F °C ) Dew Point ( °F °C ) Humidity (%) Winds ( mph kmh ) Pressure ( in mb ) Visibility ( mi km ) Precip ( " mm )
12:52 am 00:52 Partly Cloudy 83 28.3 72 22.2 70 70 SSW 6 9 30.02 1017 10 16.0934 0 0
1:52 am 01:52 Clear 83 28.3 72 22.2 70 70 SW 9 15 30.02 1017 10 16.0934 0 0
2:52 am 02:52 Mostly Clear 82 27.8 72 22.2 72 72 SW 7 11 30.01 1016 10 16.0934 0 0
3:52 am 03:52 Clear 80 26.7 74 23.3 82 82 S 8 13 30 1016 10 16.0934 0 0
4:52 am 04:52 Mostly Cloudy 80 26.7 72 22.2 76 76 WSW 5 7 30.01 1016 10 16.0934 0 0
5:52 am 05:52 Partly Cloudy 79 26.1 72 22.2 79 79 SSW 5 7 30.02 1017 10 16.0934 0 0
6:52 am 06:52 Mostly Cloudy 79 26.1 72 22.2 79 79 SSW 3 6 30.04 1017 10 16.0934 0 0
7:52 am 07:52 Mostly Cloudy 82 27.8 72 22.2 72 72 N 8 13 30.06 1018 10 16.0934 0 0
8:52 am 08:52 Mostly Cloudy 84 28.9 70 21.1 63 63 NNW 9 15 30.07 1018 10 16.0934 0 0
9:52 am 09:52 Mostly Cloudy 86 30 69 20.6 57 57 NW 12 19 30.08 1019 10 16.0934 0 0
10:52 am 10:52 Partly Cloudy 88 31.1 66 18.9 48 48 N 10 17 30.09 1019 10 16.0934 0 0
11:52 am 11:52 Partly Cloudy 90 32.2 66 18.9 45 45 NNW 8 13 30.09 1019 10 16.0934 0 0
12:52 pm 12:52 Partly Cloudy 90 32.2 67 19.4 47 47 N 7 11 30.09 1019 10 16.0934 0 0
1:52 pm 13:52 Partly Cloudy 92 33.3 67 19.4 44 44 NNW 8 13 30.09 1019 10 16.0934 0 0
2:52 pm 14:52 Partly Cloudy 92 33.3 66 18.9 43 43 Calm 30.06 1018 10 16.0934 0 0
3:52 pm 15:52 Partly Cloudy 92 33.3 67 19.4 44 44 NE 6 9 30.05 1018 10 16.0934 0 0
4:52 pm 16:52 Partly Cloudy 91 32.8 67 19.4 45 45 NNE 8 13 30.03 1017 10 16.0934 0 0
5:52 pm 17:52 Mostly Cloudy 89 31.7 66 18.9 47 47 NE 8 13 30.04 1017 10 16.0934 0 0
6:52 pm 18:52 Mostly Cloudy 88 31.1 68 20 52 52 NE 6 9 30.05 1018 10 16.0934 0 0
8:52 pm 20:52 Cloudy 84 28.9 71 21.7 65 65 E 5 7 30.08 1019 10 16.0934 0 0
9:21 pm 21:21 Cloudy with Nearby Thunderstorms 84 28.9 71 21.7 65 65 Calm 30.09 1019 10 16.0934 0 0
9:36 pm 21:36 Cloudy with Thunderstorms 84 28.9 70 21.1 63 63 Calm 30.09 1019 10 16.0934 0 0
9:52 pm 21:52 Cloudy with Thunderstorms 84 28.9 70 21.1 63 63 Calm 30.09 1019 10 16.0934 0 0
10:27 pm 22:27 Cloudy with Nearby Thunderstorms 84 28.9 69 20.6 61 61 S 3 6 30.09 1019 10 16.0934 0 0
10:52 pm 22:52 Cloudy 84 28.9 69 20.6 61 61 S 3 6 30.1 1019 10 16.0934 0 0
11:25 pm 23:25 Cloudy with Thunderstorms 84 28.9 70 21.1 63 63 Calm 30.12 1020 10 16.0934 0 0
11:40 pm 23:40 Cloudy 84 28.9 70 21.1 63 63 Calm 30.12 1020 10 16.0934 0 0
11:52 pm 23:52 Cloudy 84 28.9 70 21.1 63 63 S 3 6 30.11 1020 10 16.0934 0 0

Powered by AerisWeather